Location: Baia de Cri?
(46.1667°N, 22.7167°E)
Time: 08:34:54
(UTC+00:00)

SMAP - Pass Details

Date: 15 January 2026
Orbit: 681 x 683 km, 98.1° (Epoch: 10 February)

Event Time Altitude Azimuth Distance (km) Brightness Sun altitude
Rises 05:04:45 0° 11° (NNE) 3,055 6.3 -10.7°
Reaches altitude 10° 05:07:01 10° 10° (N) 2,135 5.5 -10.4°
Maximum altitude 05:11:40 74° 287° (WNW) 713 3.0 -9.6°
Drops below altitude 10° 05:16:17 10° 202° (SSW) 2,118 5.6 -8.8°
Sets 05:18:31 0° 200° (SSW) 3,028 6.4 -8.5°
